Flag for United Kingdom Weather past 2 weeks in Swansea, Wales, United Kingdom

Now
49 °F

Cool.


Feels Like: 47 °F
Forecast: 48 / 56 °F
Wind: 5 mph from North

Location: Mumbles

Current Time: May 27, 2015 at 3:10:21 AM

Latest Report: May 27, 2015 at 2:00 AM


Visibility: N/A

Pressure: 30.38 "Hg

Humidity: 83%

Dew point: 44 °F

Location of SwanseaLocation

Historic Weather in Swansea — Graph

°F

Swansea temperature yesterday

Maximum temperature yesterday: 60 °F (at 6:00 PM)
Minimum temperature yesterday: 52 °F (at 12:00 AM)
Average temperature yesterday: 56 °F

Past Weeks' High & Low Weather Summary

 TemperatureHumidityPressure
High64 °F (May 23, 1:00 PM)100% (May 22, 10:00 AM)30.42 "Hg (May 22, 10:00 AM)
Low44 °F (May 20, 5:00 AM)41% (May 13, 8:00 PM)29.56 "Hg (May 18, 10:00 AM)
Average53 °F79%30.14 "Hg
* Reported May 12 1:00 AM — May 27 1:00 AM, Swansea, Weather by CustomWeather, © 2015

Note: Actual official high and low records may vary slightly from our data, if they occured in-between our weather recording intervals... More about our weather records

Advertising

Swansea weather history for previous 24 hours

 ConditionsComfort  
Time TempWeatherWind HumidityBarometerVisibility
1:00 AM
Wed, May 27
50 °FCool.7 mph80%30.38 "HgN/A
12:00 AM51 °FCool.7 mph76%30.37 "HgN/A
11:00 PM
Tue, May 26
52 °FCool.10 mph72%30.37 "HgN/A
9:00 PM56 °FCool.10 mph63%30.36 "HgN/A
8:00 PM58 °FRefreshingly cool.10 mph57%30.35 "HgN/A
7:00 PM60 °FRefreshingly cool.10 mph57%30.34 "HgN/A
6:00 PM60 °FRefreshingly cool.9 mph59%30.34 "HgN/A
5:00 PM59 °FCool.8 mph62%30.34 "HgN/A
4:00 PM59 °FCool.10 mph65%30.33 "HgN/A
3:00 PM59 °FCool.8 mph66%30.33 "HgN/A
2:00 PM58 °FCool.10 mph68%30.33 "HgN/A
1:00 PM60 °FCool.10 mph67%30.32 "HgN/A
12:00 PM58 °FCool.8 mph68%30.32 "HgN/A
11:00 AM56 °FCool.9 mph70%30.31 "HgN/A
10:00 AM56 °FCool.8 mph72%30.30 "HgN/A
9:00 AM55 °FCool.7 mph75%30.29 "HgN/A
8:00 AM54 °FCool.5 mph80%30.28 "HgN/A
7:00 AM54 °FCool.8 mph83%30.26 "HgN/A
6:00 AM52 °FCool.6 mph87%30.25 "HgN/A
5:00 AM54 °FCool.6 mph84%30.24 "HgN/A
4:00 AM53 °FCool.2 mph84%30.24 "HgN/A
3:00 AM53 °FCool.5 mph82%30.25 "HgN/A
Weather by CustomWeather, © 2015

See weather overviewHow to use our weather pages